Regional Weather Roundup
Issued by NWS

Home | Current Version | Previous Version | Graphics & Text | Print | Product List | Glossary On
Versions: 1 2 3 4 5 6 7 8 9 10 11 12 13 14 15 16 17 18 19 20 21 22 23 24 25 26 27 28 29 30 31 32 33 34 35 36 37 38 39 40 41 42 43 44 45 46 47 48 49 50
000
ASUS45 KCYS 260210
RWRWY

WYOMING REGIONAL WEATHER ROUNDUP
NATIONAL WEATHER SERVICE CHEYENNE WY
700 PM MST SUN JAN 25 2015

NOTE:  "FAIR" INDICATES FEW OR NO CLOUDS BELOW 12,000 FEET
WITH NO SIGNIFICANT WEATHER AND/OR OBSTRUCTIONS TO VISIBILITY.

WYZ001-260300-
YELLOWSTONE NATIONAL PARK

CITY           SKY/WX    TMP DP  RH WIND       PRES   REMARKS
LK YELLOWSTONE   N/A     30  26  85 VRB3      30.45R
W YELLOWSTONE  NOT AVBL

$$
WYZ002>013-054>058-071-098>099-260300-
NORTHERN WYOMING

CITY           SKY/WX    TMP DP  RH WIND       PRES   REMARKS
JACKSON        CLEAR     28  28 100 VRB5      30.43S WCI  23
CODY           FAIR      55  25  30 W13G20    30.16R
GREYBULL       FAIR      27  23  85 CALM      30.18R
WORLAND        FAIR      27  23  85 S6        30.17R WCI  20
SHERIDAN       FAIR      42  28  57 S6        30.04S
BUFFALO          N/A     48  28  46 S7        30.07S
GILLETTE       FAIR      42  31  64 W12       30.05R
HULETT           N/A    N/A N/A N/A MISG        N/A
NEWCASTLE      FAIR      37  32  81 NW3       30.04S

$$
WYZ014>020-022>026-101>103-260300-
CENTRAL WYOMING

CITY           SKY/WX    TMP DP  RH WIND       PRES   REMARKS
BIG PINEY      FAIR      33  26  75 N8        30.38R WCI  26
PINEDALE       FAIR      36  28  75 W20       30.34S WCI  25
DUBOIS         FAIR      43  23  45 W31G40    30.29S
LANDER         FAIR      43  28  55 CALM      30.20R
RIVERTON       FAIR      35  27  72 W8        30.22R WCI  29
CASPER         FAIR      41  29  62 W14       30.16R
DOUGLAS        FAIR      41  29  62 NW14      30.14R

$$
WYZ021-027>030-104>119-260300-
SOUTHERN WYOMING

CITY           SKY/WX    TMP DP  RH WIND       PRES   REMARKS
EVANSTON       FAIR      37  30  75 SW7       30.43R WCI  32
KEMMERER       FAIR      34  30  86 NW15      30.43S WCI  24
FORT BRIDGER   FAIR      40  32  74 W15       30.44S WCI  31
ROCK SPRINGS   FAIR      38  26  62 W9        30.36R WCI  31
DIXON          FAIR      33  28  81 CALM      30.41R
RAWLINS        FAIR      37  27  67 W21       30.29R WCI  26
SARATOGA       FAIR      37  28  70 MISG      30.32S
LARAMIE        FAIR      37  23  56 W6        30.23R WCI  32
CHEYENNE       FAIR      42  26  53 NW7       30.17R
TORRINGTON     FAIR      45  31  58 W14       30.09R
PINE BLUFFS    FAIR      41  30  65 NW15      30.15S

$$


USA.gov is the U.S. government's official web portal to all federal, state and local government web resources and services.